FW6537 Weather Reports


Display with metric or nautical units.
time (UTC)temp
F
wind
direction
speed
MPH
gust
MPH
rain 1hr
in
rain 24hr
in
rain mn
in
humidity
%
barometer
mb
20260509173126 53 158 0.0 0.0 0.00 0.00 0.00 87 1006.5
20260509171635 53 159 1.0 2.0 0.00 0.00 0.00 87 1006.6
20260509170132 52 153 0.0 0.0 0.00 0.00 0.00 88 1006.8
20260509164647 52 154 0.0 0.0 0.00 0.00 0.00 88 1006.8
20260509163142 52 154 0.0 1.0 0.00 0.00 0.00 87 1006.9
20260509161656 52 151 1.0 2.0 0.00 0.00 0.00 87 1007.4
20260509160150 52 146 0.0 0.0 0.00 0.00 0.00 86 1007.7
20260509154644 53 146 0.0 2.0 0.00 0.00 0.00 84 1007.5
20260509153130 53 145 0.0 0.0 0.00 0.00 0.00 84 1007.9
20260509151629 53 144 0.0 0.0 0.00 0.00 0.00 84 1007.9
20260509150123 53 145 0.0 0.0 0.00 0.00 0.00 84 1008.0
20260509144635 52 145 0.0 1.0 0.00 0.02 0.00 83 1008.1
20260509143126 51 162 0.0 0.0 0.00 0.02 0.00 84 1008.0
20260509141632 50 168 2.0 3.0 0.00 0.02 0.00 85 1008.0
20260509140124 49 149 0.0 1.0 0.00 0.02 0.00 85 1008.2
20260509134701 48 158 0.0 1.0 0.00 0.02 0.00 84 1008.3
20260509133135 47 158 0.0 1.0 0.00 0.02 0.00 85 1008.5
20260509131644 46 148 1.0 4.0 0.00 0.02 0.00 83 1008.3
20260509130139 46 137 0.0 2.0 0.00 0.02 0.00 85 1008.3
20260509124633 45 129 0.0 1.0 0.00 0.02 0.00 85 1008.4
20260509123146 44 129 0.0 0.0 0.00 0.02 0.00 86 1008.3
20260509121631 44 129 0.0 0.0 0.00 0.02 0.00 86 1008.4
20260509120126 44 127 0.0 0.0 0.00 0.02 0.00 86 1008.6
20260508183203 50 87 3.0 9.0 0.00 0.06 0.06 67 1011.2
20260508181637 50 108 1.0 7.0 0.00 0.06 0.06 66 1011.1
20260508180133 49 73 1.0 4.0 0.00 0.06 0.06 70 1011.2
20260508174628 49 70 1.0 4.0 0.00 0.06 0.06 67 1011.2